Sturgeon Bay, WI

3:03 PM CST on February 10, 2016 (GMT -0600)
Door County Cherryland

Weather History for KSUE - September, 2012

Change the Weather History Date:

Saturday, September 8, 2012

  Actual Average Record
Temperature  
Mean Temperature 60 °F -  
Max Temperature 66 °F 73 °F 93 °F (1931)
Min Temperature 53 °F 54 °F 37 °F (1917)
Degree Days  
Heating Degree Days 6    
Growing Degree Days 10 (Base 50)    
Moisture  
Dew Point 49 °F    
Average Humidity 72    
Maximum Humidity 88    
Minimum Humidity 43    
Precipitation  
Precipitation 0.03 in - - ()
Sea Level Pressure  
Sea Level Pressure 29.82 in    
Wind  
Wind Speed 11 mph (NW)    
Max Wind Speed 15 mph    
Max Gust Speed 22 mph    
Visibility 10 miles    
Events      
Averages and records for this station are not official NWS values.
T = Trace of Precipitation, MM = Missing Value Source: NWS Daily Summary

Daily Weather History Graph

Daily Weather History Graph

Search for Another Location

Airport or City:

Trip Planner

Search our weather history database for the weather conditions in past years. The results will help you decide how hot, cold, wet, or windy it might be!

Date:

Astronomy

Sep. 08, 2012 Rise Set
Actual Time 6:20 AM CDT 7:12 PM CDT
Civil Twilight 5:51 AM CDT 7:42 PM CDT
Nautical Twilight 5:15 AM CDT 8:17 PM CDT
Astronomical Twilight 4:38 AM CDT 8:54 PM CDT
Moon 11:39 PM CDT (9/8) 2:20 PM CDT (9/8)
Length of Visible Light 13h 51m
Length of Day
12h 51m
Waning Gibbous, 48% of the Moon is Illuminated
Sep 8
Waning Gibbous
Sep 15
New
Sep 22
First Quarter
Sep 29
Full
Oct 8
Last Quarter

Hourly Weather History & Observations

Time (CDT) Temp. Dew Point Humidity Pressure Visibility Wind Dir Wind Speed Gust Speed Precip Events Conditions
12:15 AM 57.2 °F 51.8 °F 82% 29.84 in 10.0 mi NNW 11.5 mph - N/A   Partly Cloudy
12:35 AM 57.2 °F 51.8 °F 82% 29.84 in 10.0 mi NNW 9.2 mph 17.3 mph N/A   Clear
12:55 AM 57.2 °F 51.8 °F 82% 29.84 in 10.0 mi NNW 8.1 mph - N/A   Scattered Clouds
1:15 AM 57.2 °F 51.8 °F 82% 29.84 in 10.0 mi NW 10.4 mph - N/A   Partly Cloudy
1:35 AM 57.2 °F 51.8 °F 82% 29.84 in 10.0 mi NW 11.5 mph - N/A   Partly Cloudy
1:55 AM 55.4 °F 50.0 °F 82% 29.84 in 10.0 mi NNW 10.4 mph - N/A   Clear
2:15 AM 55.4 °F 50.0 °F 82% 29.84 in 10.0 mi NW 8.1 mph - N/A   Clear
2:35 AM 55.4 °F 50.0 °F 82% 29.83 in 10.0 mi NW 9.2 mph - N/A   Clear
2:55 AM 55.4 °F 50.0 °F 82% 29.83 in 10.0 mi NW 11.5 mph - N/A   Clear
3:15 AM 55.4 °F 50.0 °F 82% 29.83 in 10.0 mi NW 10.4 mph - N/A   Clear
3:35 AM 55.4 °F 50.0 °F 82% 29.82 in 10.0 mi NW 10.4 mph 18.4 mph N/A   Clear
3:55 AM 55.4 °F 48.2 °F 77% 29.82 in 10.0 mi NNW 11.5 mph - N/A   Clear
4:15 AM 55.4 °F 50.0 °F 82% 29.81 in 10.0 mi NW 12.7 mph - N/A   Clear
4:35 AM 55.4 °F 50.0 °F 82% 29.81 in 10.0 mi NNW 13.8 mph - N/A   Clear
4:55 AM 55.4 °F 50.0 °F 82% 29.81 in 10.0 mi NW 11.5 mph - N/A   Clear
5:15 AM 53.6 °F 50.0 °F 88% 29.81 in 10.0 mi NNW 10.4 mph - N/A   Clear
5:35 AM 53.6 °F 50.0 °F 88% 29.81 in 10.0 mi NNW 11.5 mph - N/A   Clear
5:55 AM 53.6 °F 50.0 °F 88% 29.81 in 10.0 mi NW 11.5 mph - N/A   Clear
6:15 AM 53.6 °F 48.2 °F 82% 29.81 in 10.0 mi NW 13.8 mph 19.6 mph N/A   Clear
6:35 AM 53.6 °F 48.2 °F 82% 29.81 in 10.0 mi NW 10.4 mph 20.7 mph N/A   Clear
6:55 AM 53.6 °F 48.2 °F 82% 29.82 in 10.0 mi NW 15.0 mph 18.4 mph N/A   Clear
7:15 AM 55.4 °F 50.0 °F 82% 29.82 in 10.0 mi NW 12.7 mph 18.4 mph N/A   Clear
7:35 AM 55.4 °F 50.0 °F 82% 29.83 in 10.0 mi NW 13.8 mph 19.6 mph N/A   Clear
7:55 AM 57.2 °F 48.2 °F 72% 29.83 in 10.0 mi NW 13.8 mph - N/A   Clear
8:15 AM 57.2 °F 50.0 °F 77% 29.83 in 10.0 mi NW 12.7 mph 18.4 mph N/A   Scattered Clouds
8:35 AM 57.2 °F 50.0 °F 77% 29.83 in 10.0 mi NW 12.7 mph 18.4 mph N/A   Scattered Clouds
8:55 AM 57.2 °F 48.2 °F 72% 29.83 in 10.0 mi NW 13.8 mph 18.4 mph N/A   Clear
9:15 AM 59.0 °F 48.2 °F 67% 29.83 in 10.0 mi NW 13.8 mph 19.6 mph N/A   Clear
9:35 AM 60.8 °F 48.2 °F 63% 29.84 in 10.0 mi NW 11.5 mph 21.9 mph N/A   Clear
9:55 AM 60.8 °F 48.2 °F 63% 29.84 in 10.0 mi NNW 13.8 mph 21.9 mph N/A   Scattered Clouds
10:15 AM 60.8 °F 48.2 °F 63% 29.83 in 10.0 mi NW 12.7 mph - N/A   Overcast
10:35 AM 60.8 °F 48.2 °F 63% 29.83 in 10.0 mi NNW 15.0 mph 19.6 mph N/A   Mostly Cloudy
3:55 PM 66.2 °F 42.8 °F 43% 29.77 in 10.0 mi WNW 12.7 mph - N/A   Clear
4:15 PM 66.2 °F 44.6 °F 46% 29.77 in 10.0 mi West 12.7 mph 17.3 mph N/A   Clear
4:35 PM 66.2 °F 44.6 °F 46% 29.77 in 10.0 mi West 12.7 mph - N/A   Clear
4:55 PM 66.2 °F 44.6 °F 46% 29.78 in 10.0 mi West 10.4 mph 16.1 mph N/A   Clear
5:15 PM 64.4 °F 44.6 °F 49% 29.78 in 10.0 mi WNW 9.2 mph - N/A   Clear
5:35 PM 64.4 °F 46.4 °F 52% 29.77 in 10.0 mi WNW 8.1 mph - N/A   Partly Cloudy
5:55 PM 64.4 °F 46.4 °F 52% 29.77 in 10.0 mi West 8.1 mph - N/A   Clear
6:15 PM 62.6 °F 48.2 °F 59% 29.78 in 10.0 mi West 10.4 mph 20.7 mph N/A   Mostly Cloudy
6:35 PM 60.8 °F 50.0 °F 68% 29.78 in 10.0 mi West 11.5 mph - N/A   Mostly Cloudy
6:55 PM 60.8 °F 50.0 °F 68% 29.79 in 10.0 mi West 9.2 mph - N/A   Overcast
7:15 PM 60.8 °F 50.0 °F 68% 29.79 in 10.0 mi WNW 9.2 mph - N/A   Overcast
7:35 PM 59.0 °F 48.2 °F 67% 29.80 in 10.0 mi West 6.9 mph - N/A   Overcast
7:55 PM 59.0 °F 48.2 °F 67% 29.81 in 10.0 mi WNW 6.9 mph - N/A   Overcast
8:15 PM 59.0 °F 50.0 °F 72% 29.81 in 10.0 mi WNW 6.9 mph - N/A   Overcast
8:35 PM 60.8 °F 48.2 °F 63% 29.82 in 10.0 mi NNW 9.2 mph - N/A   Overcast
8:55 PM 59.0 °F 48.2 °F 67% 29.83 in 10.0 mi NW 6.9 mph - N/A   Overcast
9:15 PM 59.0 °F 50.0 °F 72% 29.83 in 10.0 mi NW 6.9 mph - N/A   Overcast
9:35 PM 59.0 °F 48.2 °F 67% 29.83 in 10.0 mi NW 10.4 mph - N/A   Overcast
10:15 PM 57.2 °F 48.2 °F 72% 29.84 in 10.0 mi NNW 10.4 mph - N/A   Scattered Clouds
10:35 PM 57.2 °F 48.2 °F 72% 29.84 in 10.0 mi NNW 10.4 mph - N/A   Partly Cloudy
10:55 PM 57.2 °F 50.0 °F 77% 29.85 in 10.0 mi NNW 9.2 mph - N/A   Mostly Cloudy
11:15 PM 57.2 °F 50.0 °F 77% 29.85 in 10.0 mi NNW 9.2 mph - N/A   Mostly Cloudy
11:55 PM 57.2 °F 50.0 °F 77% 29.87 in 10.0 mi North 12.7 mph - N/A   Overcast